Lapse_Rate
0.9 -0.4 -0.1 0.2 0.3 0.6 1.3 2.4 2.7 2.7 2.6 2.8 2.8 3.0 3.2 3.2 3.2 3.0 3.2 3.6 4.1 4.6 5.0 5.2 5.3 5.4 6.0 5.8 5.7 5.5 5.1 5.4 5.6 5.6 5.9 5.9 5.8 5.9 5.3 5.1 5.2 5.2 5.4
-0.1 -0.6 -0.3 -0.2 0.1 0.3 1.3 2.5 2.8 2.8 2.9 3.1 2.9 3.2 3.2 3.3 3.5 3.3 3.6 3.8 4.2 4.7 4.9 5.2 5.4 5.6 5.4 5.2 4.9 4.6 4.4 4.6 5.2 5.4 5.7 5.9 6.1 6.1 5.4 4.9 4.7 5.0 5.4
-0.7 -0.5 -0.1 -0.3 0.2 1.0 1.6 2.3 2.7 3.0 3.3 3.2 3.0 3.1 3.4 3.5 3.7 3.7 3.9 4.3 4.5 4.8 4.7 5.1 5.3 5.4 5.2 4.9 4.8 4.6 4.8 5.3 5.7 5.7 5.0 4.8 5.8 5.7 5.3 5.0 4.9 5.2 5.6
-0.5 -0.3 -0.5 -0.3 0.6 1.5 2.0 2.5 2.8 3.2 3.2 3.1 2.9 3.2 3.5 3.7 3.9 3.8 4.1 4.6 5.1 6.2 6.0 5.2 5.2 4.8 4.6 4.8 4.9 5.0 5.2 5.5 5.9 5.6 5.3 5.5 5.7 5.8 5.8 5.4 5.5 5.6 5.7
0.7 -0.1 -0.5 -0.3 0.6 1.5 2.0 2.4 2.6 2.9 2.9 3.0 3.1 3.5 3.8 3.9 4.1 4.2 4.2 4.5 5.1 5.6 5.6 5.3 5.0 4.1 4.1 4.4 4.9 5.3 5.4 5.8 6.5 6.2 5.3 5.2 5.3 5.9 6.0 5.7 5.7 5.5 5.5
1.5 0.1 -0.9 -0.2 0.7 1.5 2.0 2.3 2.5 2.7 3.4 2.8 3.2 3.6 3.8 4.1 4.3 4.5 4.5 4.5 4.9 5.5 5.7 5.3 4.6 4.6 4.6 4.6 4.9 5.4 5.4 6.7 6.5 6.4 5.7 5.1 5.6 6.0 6.0 5.6 5.5 5.5 5.5
0.0 -0.8 -0.8 -0.2 0.5 1.3 1.8 2.2 2.4 3.0 3.2 2.6 3.1 3.5 3.8 4.3 4.6 4.6 4.6 4.7 5.7 6.4 5.8 6.1 5.0 4.7 4.5 4.6 4.9 5.5 5.6 6.8 5.2 5.3 5.4 4.7 5.0 6.2 6.2 5.6 5.6 5.4 5.3
-0.8 -1.0 -0.7 -0.3 0.3 0.9 1.4 1.9 2.2 2.4 2.3 2.5 2.9 3.4 3.9 4.3 4.6 4.7 4.8 5.1 5.6 6.0 6.7 6.2 5.4 4.9 5.0 4.9 5.0 6.4 5.7 6.4 5.3 4.9 5.4 5.0 6.0 5.9 5.9 5.6 5.4 5.1 5.1
-0.2 -1.1 -1.3 -0.6 -0.0 0.5 0.8 1.1 1.6 2.0 2.2 2.4 2.7 3.2 3.6 4.3 4.7 4.7 5.0 5.3 6.4 6.9 7.1 6.2 5.9 5.2 4.9 5.0 5.2 6.2 5.5 5.8 5.1 4.5 4.5 6.0 6.2 5.9 5.8 5.6 5.5 5.2 5.0
0.1 -0.6 -1.3 -1.2 -0.9 -0.7 -0.2 0.6 0.8 1.3 1.8 2.7 2.6 3.5 3.5 4.0 4.7 5.0 5.2 5.9 6.4 7.2 7.0 6.5 6.2 5.0 4.8 4.9 5.3 6.0 4.8 5.2 5.8 5.3 4.7 6.3 6.2 6.1 6.1 6.0 5.8 5.5 5.5
1.5 0.3 -0.7 -0.9 -1.0 -0.9 -0.6 0.1 0.6 1.0 1.6 2.5 2.7 3.6 3.4 3.0 3.6 4.5 5.1 6.0 6.3 7.2 6.7 6.4 6.0 5.0 5.0 4.3 5.3 5.3 4.0 5.1 5.2 4.2 4.1 7.2 6.5 5.9 6.2 6.5 6.1 5.6 5.6
1.9 0.8 0.6 -0.4 -0.7 -0.6 1.1 -0.3 -0.2 0.3 0.6 1.3 1.9 2.4 2.2 2.7 3.3 4.2 4.8 5.7 6.3 6.6 6.5 6.3 5.8 4.6 4.6 4.1 4.2 4.1 4.1 5.0 5.0 4.3 5.8 7.3 6.5 6.4 6.5 6.8 6.5 6.0 6.0
3.1 2.7 1.3 0.8 0.2 0.2 1.2 -0.6 -0.1 -0.1 0.2 1.0 1.9 2.2 2.8 3.1 3.6 3.9 4.1 4.9 5.0 5.8 4.8 4.5 4.3 3.6 3.8 3.5 3.3 3.3 3.7 4.7 4.2 5.2 5.5 6.5 6.8 6.4 6.5 6.2 6.2 6.4 5.9
3.8 3.4 2.6 1.9 1.5 1.1 0.4 0.3 0.5 0.4 0.3 0.5 1.3 2.2 2.4 2.4 2.7 2.7 3.0 3.4 3.8 4.2 3.4 3.3 3.3 4.0 4.0 3.6 3.5 3.3 3.8 4.0 3.9 4.1 4.6 4.9 6.8 6.9 6.0 6.3 6.8 6.6 6.3
4.5 4.0 2.8 1.9 1.8 2.0 1.9 1.6 1.6 1.8 1.2 1.5 1.9 2.2 2.0 2.4 2.8 3.3 3.1 3.7 4.0 4.2 3.9 3.4 3.6 4.0 3.9 3.5 3.5 3.3 3.5 3.7 4.1 4.3 4.5 4.5 5.2 6.8 6.2 6.5 7.4 7.4 7.3
5.1 4.5 3.7 2.8 1.6 2.1 2.3 1.4 2.0 2.5 2.8 2.5 2.3 2.5 2.7 2.5 2.8 3.0 3.1 3.4 3.6 4.3 4.2 4.1 3.7 3.5 3.7 3.6 3.5 3.3 3.1 3.4 3.9 3.8 4.4 5.0 5.3 6.8 6.3 7.0 7.4 7.6 7.9
3.3 5.1 4.5 3.2 2.7 2.8 3.1 2.4 2.0 2.4 3.6 2.9 2.9 2.8 3.3 3.4 3.1 3.0 3.6 3.4 3.6 4.2 4.3 4.2 4.1 4.0 3.9 4.2 3.3 3.8 2.9 3.0 3.6 3.9 4.0 3.7 4.4 7.2 6.7 6.7 7.4 7.9 8.1
3.2 2.3 3.9 4.6 3.2 2.9 3.2 3.4 3.1 2.5 3.8 3.6 2.8 2.9 3.1 3.5 3.8 3.3 3.6 3.2 3.9 3.9 3.7 3.9 4.4 4.0 4.3 3.7 3.0 2.7 2.5 3.3 4.0 4.3 4.3 4.7 4.8 6.0 6.8 6.5 7.2 7.9 7.8
3.2 3.5 3.2 3.2 3.1 3.1 1.8 3.0 2.7 2.7 3.0 4.0 3.3 3.4 3.5 3.9 4.3 3.6 3.3 3.3 4.2 3.3 3.3 3.7 3.5 4.3 4.6 4.2 3.3 3.6 2.9 3.3 3.7 5.0 5.3 5.2 5.2 5.7 5.9 6.2 7.1 7.4 7.4
3.6 2.9 1.9 3.3 3.0 2.7 2.9 1.9 2.2 2.4 3.1 3.2 3.8 3.8 3.9 4.5 4.3 3.9 4.1 3.8 4.1 3.4 3.2 3.4 4.2 3.4 4.6 4.7 4.3 3.8 3.6 3.5 4.1 4.5 5.2 5.5 5.7 5.6 5.6 5.5 6.4 6.8 7.1
1.4 1.4 0.2 2.0 2.5 2.2 2.2 2.9 2.7 2.8 2.8 3.2 3.5 3.7 3.4 5.0 5.0 4.8 5.1 4.1 4.4 4.2 4.0 3.6 4.2 4.2 4.1 4.2 4.7 4.8 4.7 4.5 4.7 4.6 5.8 6.1 6.0 5.7 5.4 5.1 5.4 6.2 6.9
1.7 1.8 2.2 2.8 2.3 2.8 3.2 3.6 3.2 1.6 1.8 4.1 2.9 3.5 3.9 3.6 4.3 4.6 4.6 4.1 3.5 3.9 4.5 4.4 3.7 3.9 3.9 4.4 5.0 5.1 5.2 4.9 4.8 5.2 5.1 5.8 5.5 5.8 5.1 5.2 5.3 5.4 6.3
1.7 2.5 3.3 3.4 3.7 3.2 3.4 2.3 1.6 1.7 1.9 2.4 3.2 3.4 4.0 3.9 4.1 4.7 4.6 3.9 3.7 3.9 4.1 4.1 4.0 4.4 4.3 4.8 4.8 5.2 5.5 5.7 5.3 4.7 5.0 5.8 5.5 5.3 5.6 5.4 5.8 5.6 5.7
2.3 1.9 2.5 3.2 3.6 4.1 4.2 3.5 2.1 2.0 1.3 1.4 2.1 3.4 5.0 4.4 4.8 5.1 5.0 4.0 3.2 3.6 4.2 5.1 4.8 4.8 4.6 4.8 4.9 4.3 4.1 4.2 5.8 5.4 5.1 5.8 5.6 5.9 5.7 5.6 5.9 5.8 5.8
2.9 2.3 3.0 3.6 3.7 4.0 3.9 3.9 3.0 1.8 2.5 1.5 1.4 2.7 3.9 4.4 5.4 5.1 5.2 4.2 4.0 3.6 3.5 4.5 4.8 5.1 4.7 4.6 5.0 4.9 4.3 4.4 3.7 5.2 5.9 5.3 5.6 5.8 5.9 5.5 5.7 5.9 6.1
2.9 2.8 2.9 3.0 3.2 3.3 3.6 3.7 3.3 3.0 2.0 1.6 2.1 2.5 3.8 5.0 4.9 4.7 5.1 4.4 4.2 4.5 3.4 4.0 4.5 4.7 4.5 5.0 5.2 5.1 4.8 5.7 5.2 5.3 5.9 5.6 5.7 5.8 6.1 5.5 5.5 6.0 6.4
Wind_Speed
5 12 19 19 19 19 17 15 16 17 16 15 15 16 17 17 18 19 20 19 19 19 18 15 14 12 13 13 16 18 20 21 20 21 21 24 23 21 24 23 22 21 22
15 14 19 20 19 19 17 15 15 17 17 17 16 16 17 17 17 17 18 18 19 18 18 16 14 12 15 15 18 18 19 21 21 21 21 19 20 21 24 23 21 22 23
15 16 17 19 19 17 17 15 16 16 17 17 17 16 16 16 16 16 16 16 17 18 19 17 15 14 14 15 18 17 18 20 22 22 20 16 17 23 24 23 23 23 23
16 15 16 20 19 16 16 16 17 17 17 17 17 17 17 16 16 17 16 15 13 18 16 17 16 15 15 16 16 17 17 18 21 19 18 17 17 22 23 24 24 25 25
13 16 17 20 19 18 17 17 18 17 16 16 17 16 16 15 15 15 15 15 14 17 14 16 16 16 18 17 16 15 15 16 17 15 16 20 15 20 22 22 23 23 23
13 16 19 21 19 18 17 17 18 18 16 16 16 16 16 15 14 15 15 15 15 16 13 16 15 14 15 15 16 14 12 12 11 8 13 19 17 17 21 20 21 23 22
12 14 17 21 19 18 18 18 18 18 17 18 16 16 16 15 15 15 15 15 15 14 16 14 15 16 14 14 14 13 11 10 9 8 7 17 21 19 18 21 21 22 23
14 12 15 18 19 19 19 18 18 18 18 18 17 17 16 17 17 17 16 14 14 13 13 12 14 16 15 13 12 12 10 6 10 9 10 12 21 22 21 22 23 24 23
13 12 10 13 15 19 20 20 19 17 17 18 18 18 18 18 18 18 17 16 15 13 14 14 14 16 16 15 14 12 11 7 10 12 10 9 19 21 22 23 23 23 23
12 11 9 10 12 13 13 19 19 18 17 18 19 19 19 18 17 19 20 18 16 14 13 15 14 17 18 17 15 13 8 7 14 16 4 15 20 21 21 21 22 22 22
9 10 9 9 9 11 12 14 17 18 17 17 17 18 18 14 14 15 18 18 16 16 15 16 14 17 19 16 12 11 7 4 10 17 18 21 20 19 19 19 20 22 23
12 11 10 9 10 10 11 12 12 13 11 10 12 12 12 14 14 14 17 17 17 16 18 17 13 15 17 12 10 7 4 12 12 13 17 23 22 21 21 19 19 20 21
14 10 12 11 11 11 8 10 9 9 10 11 14 14 14 12 13 13 13 14 15 18 13 14 12 12 13 12 9 8 5 12 11 14 16 21 24 23 22 21 19 20 21
16 16 16 14 12 11 6 7 8 6 9 7 12 16 10 5 6 7 7 11 11 14 11 12 10 11 13 13 11 9 9 11 12 13 14 15 19 23 24 21 21 20 20
18 18 19 18 16 13 9 8 8 8 7 11 13 15 14 5 5 5 6 10 11 13 11 9 10 9 9 11 10 8 9 12 13 13 14 16 22 22 23 22 22 22 21
18 19 18 19 17 17 13 11 8 8 10 12 12 15 16 11 5 6 5 6 8 13 13 13 9 5 5 8 5 8 9 11 13 12 11 15 17 25 23 22 22 21 22
9 16 17 18 17 16 15 10 7 9 10 7 9 16 17 15 10 6 6 5 7 13 12 11 8 8 5 5 6 6 9 10 10 10 11 12 18 25 24 23 22 22 22
8 14 18 15 17 15 13 10 7 8 8 6 7 11 16 15 15 7 7 5 9 10 9 7 7 5 6 6 4 4 4 7 8 9 10 11 13 17 22 24 23 22 23
10 9 18 17 18 16 11 10 7 8 7 7 8 8 11 13 12 7 7 5 11 4 5 6 4 6 7 5 5 4 4 5 6 10 11 14 15 15 14 22 24 24 24
10 9 14 18 20 18 12 7 6 6 6 5 7 7 11 11 12 7 5 7 8 5 5 5 7 4 7 8 6 5 6 5 5 5 8 15 18 17 17 17 20 21 25
5 8 9 12 12 10 6 5 3 8 6 3 6 8 12 13 12 6 5 6 7 8 8 8 5 8 3 5 4 4 5 7 8 4 12 12 15 18 19 19 16 16 21
8 9 9 9 11 8 7 6 4 4 4 7 5 7 11 11 10 9 7 6 8 7 9 9 7 3 2 8 3 3 3 2 3 7 6 9 12 16 14 17 18 16 16
9 9 8 9 8 7 10 5 3 4 4 3 3 4 7 9 10 10 9 7 8 8 8 9 7 10 6 6 7 3 3 3 4 3 6 8 11 9 13 17 18 18 19
8 9 9 8 7 7 6 4 7 6 5 4 4 4 7 10 11 12 12 10 9 6 9 10 9 8 6 9 5 3 1 3 4 3 3 7 9 10 11 11 17 18 20
8 8 8 8 8 8 6 3 5 5 6 3 4 6 5 4 11 12 13 12 10 7 6 10 10 10 9 7 7 4 2 2 3 4 5 5 5 7 8 9 13 15 18
13 13 13 13 11 10 9 8 6 7 6 6 6 7 7 7 7 10 11 11 11 10 10 8 9 11 11 8 8 7 7 7 8 8 7 10 10 8 7 5 8 14 16
Wind_Direction
122 147 141 133 130 131 135 142 138 134 131 127 123 120 116 113 114 113 114 113 113 113 113 106 98 101 97 100 101 98 94 97 98 99 102 102 103 106 104 100 101 101 101
134 152 141 134 132 133 139 144 141 139 136 135 131 130 126 123 122 120 119 121 122 123 119 114 105 98 98 105 103 102 106 110 110 105 100 99 109 113 108 102 105 106 107
131 142 140 133 134 139 138 143 144 145 143 140 137 137 134 132 131 128 129 130 138 134 133 123 115 109 107 108 110 113 119 120 115 106 94 90 106 113 110 109 109 110 110
131 139 145 138 135 134 135 142 149 149 149 145 144 145 142 143 142 141 140 140 136 125 121 124 128 128 128 124 125 132 131 130 130 112 112 108 113 114 117 116 115 113 112
131 140 144 137 135 137 137 142 145 150 148 149 149 148 147 148 148 146 148 147 137 127 134 136 143 144 141 140 142 143 142 147 142 121 120 114 110 124 121 119 116 115 113
134 137 142 137 137 136 137 140 143 149 152 151 154 152 152 150 149 153 158 154 147 140 145 150 144 141 148 149 152 155 162 164 143 87 124 120 124 128 122 120 120 117 114
124 136 138 140 139 138 138 141 144 150 155 154 156 155 155 155 159 163 164 163 164 159 162 158 148 153 160 162 159 171 165 180 85 86 117 122 124 130 128 129 122 119 115
130 133 139 144 145 142 137 139 147 151 153 156 159 163 159 167 171 172 171 172 176 167 167 155 159 161 168 174 175 180 174 174 70 83 63 120 130 134 134 131 127 123 119
125 129 139 150 149 148 144 145 149 156 159 161 164 166 169 178 179 180 175 181 185 176 167 156 158 169 176 184 186 193 181 162 92 131 126 141 134 137 138 136 133 129 128
128 134 145 152 148 149 149 151 152 158 164 168 171 173 178 184 189 188 184 192 191 182 167 158 164 178 187 192 197 201 184 152 121 137 185 155 144 141 141 144 139 135 133
132 142 152 160 159 155 153 158 155 159 169 174 181 182 179 178 190 192 192 194 192 187 172 167 173 183 192 194 197 214 132 64 123 140 168 160 149 143 147 149 147 142 141
151 156 162 167 169 161 164 156 158 160 163 172 178 185 178 180 187 186 194 192 188 184 176 178 179 170 183 190 201 215 163 80 123 132 153 155 154 155 151 149 152 148 148
166 162 171 172 173 169 169 160 167 167 168 179 183 183 190 189 191 186 183 182 175 174 158 164 159 167 173 181 201 208 154 114 117 131 144 159 163 160 154 156 161 158 155
173 175 172 176 175 175 153 166 169 173 177 181 188 183 180 194 186 176 166 166 164 168 154 156 164 182 177 182 186 197 162 145 140 153 166 171 186 168 162 166 167 163 162
180 180 180 176 176 174 168 172 174 180 182 181 186 192 179 181 181 170 160 165 171 173 167 165 172 177 174 167 178 183 156 149 152 150 174 186 202 186 167 170 174 168 168
190 186 182 183 177 177 178 173 179 174 180 178 182 191 190 176 172 168 165 168 172 178 178 170 172 170 165 166 172 182 162 166 160 168 190 180 207 194 167 173 174 170 172
181 190 184 180 178 179 186 176 155 169 176 180 185 180 187 183 174 169 175 173 176 181 165 160 156 145 149 161 178 179 167 166 163 160 178 186 191 184 172 171 175 172 178
227 169 180 176 177 175 184 185 167 165 178 182 174 173 182 183 175 168 173 171 171 165 155 158 162 160 167 171 184 182 156 159 171 171 180 180 169 173 178 176 172 175 178
210 191 174 167 175 178 170 180 180 153 169 181 171 181 182 178 176 166 171 170 170 161 156 157 154 164 175 176 171 172 164 172 183 181 187 181 171 171 179 176 177 179 179
201 196 170 171 175 176 171 160 177 167 161 163 183 188 185 188 177 166 168 169 171 163 162 157 164 157 181 190 175 182 193 186 187 192 188 185 175 174 176 169 181 182 178
107 116 145 156 163 155 157 165 158 185 188 172 178 179 180 186 170 171 183 153 174 174 176 167 159 171 153 164 140 191 197 189 192 186 189 182 180 178 179 173 175 177 184
123 103 93 128 147 162 169 187 187 163 186 191 175 170 168 166 171 178 200 172 169 160 164 166 161 143 141 167 158 118 189 192 185 194 197 176 175 173 170 174 176 172 176
116 115 103 109 141 172 182 158 78 72 53 111 178 159 181 176 180 188 186 180 176 166 167 170 169 175 184 187 186 151 156 190 152 176 203 182 169 170 174 174 180 177 178
124 111 107 94 83 119 160 212 168 172 166 199 168 162 178 182 193 188 179 172 172 171 172 178 177 186 185 197 191 199 142 175 159 159 161 187 172 169 173 182 181 180 182
99 92 81 68 45 12 355 129 200 183 195 145 142 173 217 174 185 185 184 170 177 172 178 174 180 185 191 186 198 172 170 239 82 153 155 164 179 183 179 181 181 182 184
52 46 45 34 30 18 11 350 186 203 178 155 168 180 202 207 194 185 183 174 180 173 178 188 188 193 186 196 197 191 189 185 178 171 162 169 175 188 188 185 189 189 183